This is the latest recevied weather packets stored in our database for station/object KC1ELF. If no packets are shown the sender has not sent any weather packets the latest 1 day(s).
| Time | Temp. | Humidity | Pressure | Rain* | Wind** | Luminosity | Snow |
|---|---|---|---|---|---|---|---|
| 1777984295 | 15.56° C | 68% | 1009.1 hPa | 0 mm | 1.79 m/s, 268° | - | - |
| 1777983695 | 15.56° C | 69% | 1009 hPa | 0 mm | 1.34 m/s, 298° | - | - |
| 1777983095 | 15.56° C | 69% | 1009.1 hPa | 0 mm | 1.79 m/s, 288° | - | - |
| 1777982496 | 15.56° C | 69% | 1009 hPa | 0 mm | 0.89 m/s, 315° | - | - |
| 1777981896 | 15° C | 71% | 1008.8 hPa | 0 mm | 1.79 m/s, 263° | - | - |
| 1777981295 | 14.44° C | 72% | 1008.9 hPa | 0 mm | 1.79 m/s, 293° | - | - |
| 1777980695 | 13.89° C | 73% | 1008.9 hPa | 0 mm | 1.79 m/s, 257° | - | - |
| 1777980096 | 13.33° C | 74% | 1008.8 hPa | 0 mm | 0.89 m/s, 223° | - | - |
| 1777979495 | 12.78° C | 75% | 1008.8 hPa | 0 mm | 1.34 m/s, 354° | - | - |
| 1777978896 | 12.22° C | 75% | 1008.7 hPa | 0 mm | 0.45 m/s, 278° | - | - |
| 1777978296 | 12.22° C | 76% | 1008.7 hPa | 0 mm | 0.89 m/s, 263° | - | - |
| 1777977695 | 11.67° C | 76% | 1008.8 hPa | 0 mm | 0.89 m/s, 186° | - | - |
| 1777977095 | 11.67° C | 76% | 1009 hPa | 0 mm | 0.89 m/s, 251° | - | - |
| 1777976495 | 11.11° C | 76% | 1008.8 hPa | 0 mm | 0.45 m/s, 298° | - | - |
| 1777975897 | 11.11° C | 75% | 1008.8 hPa | 0 mm | 0.89 m/s, 282° | - | - |
| 1777975295 | 11.11° C | 74% | 1008.8 hPa | 0 mm | 0.45 m/s, 284° | - | - |
| 1777974695 | 11.11° C | 74% | 1008.8 hPa | 0 mm | 0.89 m/s, 277° | - | - |
| 1777974095 | 11.11° C | 74% | 1008.9 hPa | 0 mm | 0.45 m/s, 293° | - | - |
| 1777973496 | 11.11° C | 75% | 1008.8 hPa | 0 mm | 0.89 m/s, 305° | - | - |
| 1777972896 | 10.56° C | 75% | 1008.9 hPa | 0 mm | 0.89 m/s, 277° | - | - |
| 1777972295 | 10.56° C | 75% | 1008.8 hPa | 0 mm | 0.45 m/s, 267° | - | - |
| 1777971696 | 10.56° C | 74% | 1008.9 hPa | 0 mm | 0.45 m/s, 289° | - | - |
* Rain latest hour (hover to see other rain measurements)
** Current wind speed in m/s (hover to see current wind gust speed)